Weather History for KEWR - May, 2014

Change the Weather History Date:

Tuesday, May 13, 2014

  Actual Average Record
Temperature  
Mean Temperature 62 °F 62 °F  
Max Temperature 71 °F 71 °F 92 °F (1956)
Min Temperature 52 °F 52 °F 37 °F (1938)
Degree Days  
Heating Degree Days 3 5  
Month to date heating degree days 43 80  
Since 1 July heating degree days 5135 4800  
Cooling Degree Days 0 1  
Month to date cooling degree days 19 13  
Year to date cooling degree days 27 25  
Growing Degree Days 12 (Base 50)    
Moisture  
Dew Point 49 °F    
Average Humidity 61    
Maximum Humidity 87    
Minimum Humidity 34    
Precipitation  
Precipitation 0.00 in 0.12 in 1.54 in (1948)
Month to date precipitation 1.05 1.61  
Year to date precipitation 20.37 16.41  
Snow  
Snow 0.00 in 0.00 in 0.00 in (2002)
Month to date snowfall 0.0 0.0  
Since 1 July snowfall 61.1 28.5  
Snow Depth 0.00 in    
Sea Level Pressure  
Sea Level Pressure 30.18 in    
Wind  
Wind Speed 9 mph (SE)    
Max Wind Speed 17 mph    
Max Gust Speed 23 mph    
Visibility 10 miles    
Events      
T = Trace of Precipitation, MM = Missing Value Source: NWS Daily Summary

Daily Weather History Graph

Daily Weather History Graph

Search for Another Location

Airport or City:

Trip Planner

Search our weather history database for the weather conditions in past years. The results will help you decide how hot, cold, wet, or windy it might be!

Date:

Astronomy

May. 13, 2014 Rise Set
Actual Time 5:41 AM EDT 8:04 PM EDT
Civil Twilight 5:10 AM EDT 8:35 PM EDT
Nautical Twilight 4:32 AM EDT 9:14 PM EDT
Astronomical Twilight 3:50 AM EDT 9:56 PM EDT
Moon 7:03 PM EDT (5/13) 4:57 AM EDT (5/13)
Length of Visible Light 15h 25m
Length of Day
14h 23m
Waxing Gibbous, 98% of the Moon is Illuminated
May 13
Waxing Gibbous
May 14
Full
May 21
Last Quarter
May 28
New
Jun 5
First Quarter

Hourly Weather History & Observations

Time (EDT) Temp. Dew Point Humidity Pressure Visibility Wind Dir Wind Speed Gust Speed Precip Events Conditions
12:51 AM 71.1 °F 62.1 °F 73% 30.04 in 10.0 mi West 3.5 mph - N/A   Partly Cloudy
1:51 AM 69.1 °F 63.0 °F 81% 30.03 in 10.0 mi SSW 3.5 mph - N/A   Scattered Clouds
2:51 AM 66.0 °F 62.1 °F 87% 30.01 in 10.0 mi SSW 4.6 mph - N/A   Partly Cloudy
3:51 AM 68.0 °F 64.0 °F 87% 30.02 in 10.0 mi West 5.8 mph - N/A   Scattered Clouds
4:51 AM 66.2 °F 62.6 °F 88% 30.04 in 10.0 mi Calm Calm - N/A   Mostly Cloudy
5:51 AM 66.9 °F 61.0 °F 81% 30.06 in 10.0 mi NNE 6.9 mph - N/A   Mostly Cloudy
6:51 AM 66.9 °F 57.9 °F 73% 30.12 in 10.0 mi NE 8.1 mph - N/A   Mostly Cloudy
7:19 AM 64.4 °F 55.4 °F 73% 30.13 in 10.0 mi NE 5.8 mph - N/A   Mostly Cloudy
7:51 AM 64.4 °F 51.8 °F 64% 30.15 in 10.0 mi NE 12.7 mph - N/A   Overcast
8:51 AM 62.6 °F 46.4 °F 55% 30.18 in 10.0 mi NNE 17.3 mph - N/A   Mostly Cloudy
9:51 AM 64.0 °F 45.0 °F 50% 30.21 in 10.0 mi NE 13.8 mph - N/A   Mostly Cloudy
10:51 AM 66.0 °F 45.0 °F 47% 30.21 in 10.0 mi ENE 8.1 mph 16.1 mph N/A   Mostly Cloudy
11:51 AM 66.2 °F 44.6 °F 46% 30.21 in 10.0 mi Variable 3.5 mph - N/A   Mostly Cloudy
12:51 PM 70.0 °F 46.0 °F 42% 30.22 in 10.0 mi SSW 6.9 mph - N/A   Mostly Cloudy
1:51 PM 68.0 °F 44.1 °F 42% 30.21 in 10.0 mi SSE 12.7 mph - N/A   Mostly Cloudy
2:51 PM 69.1 °F 41.0 °F 36% 30.22 in 10.0 mi SSE 10.4 mph - N/A   Mostly Cloudy
3:51 PM 66.0 °F 37.9 °F 36% 30.22 in 10.0 mi SE 13.8 mph 20.7 mph N/A   Mostly Cloudy
4:51 PM 66.0 °F 39.0 °F 37% 30.22 in 10.0 mi SSE 11.5 mph 17.3 mph N/A   Mostly Cloudy
5:51 PM 64.0 °F 39.9 °F 41% 30.22 in 10.0 mi SE 9.2 mph 17.3 mph N/A   Mostly Cloudy
6:35 PM 60.8 °F 42.8 °F 52% 30.23 in 10.0 mi SSE 11.5 mph - N/A   Mostly Cloudy
6:51 PM 59.0 °F 43.0 °F 55% 30.23 in 10.0 mi SSE 10.4 mph - N/A   Mostly Cloudy
7:51 PM 55.9 °F 45.0 °F 67% 30.26 in 10.0 mi SE 11.5 mph 18.4 mph N/A   Mostly Cloudy
8:37 PM 55.4 °F 44.6 °F 67% 30.27 in 10.0 mi SE 8.1 mph - N/A   Mostly Cloudy
8:51 PM 55.0 °F 45.0 °F 69% 30.27 in 10.0 mi SE 9.2 mph - N/A   Mostly Cloudy
9:51 PM 54.0 °F 45.0 °F 72% 30.29 in 10.0 mi SE 8.1 mph - N/A   Mostly Cloudy
10:51 PM 53.1 °F 45.0 °F 74% 30.30 in 10.0 mi SE 6.9 mph - N/A   Mostly Cloudy
11:51 PM 53.1 °F 45.0 °F 74% 30.30 in 10.0 mi SE 8.1 mph - N/A   Scattered Clouds